EHI
0 0 0 0 0 0 0 0 0 0 0 0 0 0 0 0 0 0 0 0 0 0 0 0 0 0 0 0 0 0 0 0 0 0 0 0 0 0 0 0 0 0 0
0 0 0 0 0 0 0 0 0 0 0 0 0 0 0 0 0 0 0 0 0 0 0 0 0 0 0 0 0 0 0 0 0 0 0 0 0 0 0 0 0 0 0
0 0 0 0 0 0 0 0 0 0 0 0 0 0 0 0 0 0 0 0 0 0 0 0 0 0 0 0 0 0 0 0 0 0 0 0 0 0 0 0 0 0 0
0 0 0 0 0 0 0 0 0 0 0 0 0 0 0 0 0 0 0 0 0 0 0 0 0 0 0 0 0 0 0 0 0 0 0 0 0 0 0 0 0 0 0
0 0 0 0 0 0 0 0 0 0 0 0 0 0 0 0 0 0 0 0 0 0 0 0 0 0 0 0 0 0 0 0 0 0 0 0 0 0 0 0 0 0 0
0 0 0 0 0 0 0 0 0 0 0 0 0 0 0 0 0 0 0 0 0 0 0 0 0 0 0 0 0 0 0 0 0 0 0 0 0 0 0 0 0 0 0
0 0 0 0 0 0 0 0 0 0 0 0 0 0 0 0 0 0 0 0 0 0 0 0 0 0 0 0 0 0 0 0 0 0 0 0 0 0 0 0 0 0 0
0 0 0 0 0 0 0 0 0 0 0 0 0 0 0 0 0 0 0 0 0 0 0 0 0 0 0 0 0 0 0 0 0 0 0 0 0 0 0 0 0 0 0
0 0 0 0 0 0 0 0 0 0 0 0 0 0 0 0 0 0 0 0 0 0 0 0 0 0 0 0 0 0 0 0 0 0 0 0 0 0 0 0 0 0 0
0 0 0 0 0 0 0 0 0 0 0 0 0 0 0 0 0 0 0 0 0 0 0 0 0 0 0 0 0 0 0 0 0 0 0 0 0 0 0 0 0 0 0
0 0 0 0 0 0 0 0 0 0 0 0 0 0 0 0 0 0 0 0 0 0 0 0 0 0 0 0 0 0 0 0 0 0 0 0 0 0 0 0 0 0 0
0 0 0 0 0 0 0 0 0 0 0 0 0 0 0 0 0 0 0 0 0 0 0 0 0 0 0 0 0 0 0 0 0 0 0 0 0 0 0 0 0 0 0
0 0 0 0 0 0 0 0 0 0 0 0 0 0 0 0 0 0 0 0 0 0 0 0 0 0 0 0 0 0 0 0 0 0 0 0 0 0 0 0 0 0 0
0 0 0 0 0 0 0 0 0 0 0 0 0 0 0 0 0 0 0 0 0 0 0 0 0 0 0 0 0 0 0 0 0 0 0 0 0 0 0 0 0 0 0
0 0 0 0 0 0 0 0 0 0 0 0 0 0 0 0 0 0 0 0 0 0 0 0 0 0 0 0 0 0 0 0 0 0 0 0 0 0 0 0 0 0 0
0 0 0 0 0 0 0 0 0 0 0 0 0 0 0 0 0 0 0 0 0 0 0 0 0 0 0 0 0 0 0 0 0 0 0 0 0 0 0 0 0 0 0
0 0 0 0 0 0 0 0 0 0 0 0 0 0 0 0 0 0 0 0 0 0 0 0 0 0 0 0 0 0 0 0 0 0 0 0 0 0 0 0 0 0 0
0 0 0 0 0 0 0 0 0 0 0 0 0 0 0 0 0 0 0 0 0 0 0 0 0 0 0 0 0 0 0 0 0 0 0 0 0 0 0 0 0 0 0
0 0 0 0 0 0 0 0 0 0 0 0 0 0 0 0 0 0 0 0 0 0 0 0 0 0 0 0 0 0 0 0 0 0 0 0 0 0 0 0 0 0 0
0 0 0 0 0 0 0 0 0 0 0 0 0 0 0 0 0 0 0 0 0 0 0 0 0 0 0 0 0 0 0 0 0 0 0 0 0 0 0 0 0 0 0
0 0 0 0 0 0 0 0 0 0 0 0 0 0 0 0 0 0 0 0 0 0 0 0 0 0 0 0 0 0 0 0 0 0 0 0 0 0 0 0 0 0 0
0 0 0 0 0 0 0 0 0 0 0 0 0 0 0 0 0 0 0 0 0 0 0 0 0 0 0 0 0 0 0 0 0 0 0 0 0 0 0 0 0 0 0
0 0 0 0 0 0 0 0 0 0 0 0 0 0 0 0 0 0 0 0 0 0 0 0 0 0 0 0 0 0 0 0 0 0 0 0 0 0 0 0 0 0 0
0 0 0 0 0 0 0 0 0 0 0 0 0 0 0 0 0 0 0 0 0 0 0 0 0 0 0 0 0 0 0 0 0 0 0 0 0 0 0 0 0 0 0
0 0 0 0 0 0 0 0 0 0 0 0 0 0 0 0 0 0 0 0 0 0 0 0 0 0 0 0 0 0 0 0 0 0 0 0 0 0 0 0 0 0 0
0 0 0 0 0 0 0 0 0 0 0 0 0 0 0 0 0 0 0 0 0 0 0 0 0 0 0 0 0 0 0 0 0 0 0 0 0 0 0 0 0 0 0
Wind_Speed
5 4 4 5 5 4 5 5 4 4 4 3 3 4 3 3 2 2 2 4 6 3 2 4 5 6 6 7 7 8 9 9 9 9 10 10 11 11 12 12 12 12 12
6 5 5 5 5 5 5 5 5 5 4 3 3 3 3 4 2 1 3 4 9 10 5 4 5 7 7 7 7 8 8 8 8 8 8 8 9 9 10 10 10 11 11
7 6 5 5 5 6 6 5 5 4 4 3 4 3 3 3 3 1 2 2 4 10 12 10 7 7 7 6 7 7 7 6 6 6 6 7 7 8 8 9 9 10 11
7 6 5 5 5 6 6 5 5 4 4 4 3 3 2 2 2 2 1 2 3 4 7 11 10 8 6 5 5 5 5 5 5 5 6 6 6 7 7 8 9 9 10
7 6 5 5 6 5 5 6 5 5 5 4 4 3 3 2 2 1 2 3 3 4 3 6 9 8 6 3 2 3 4 5 5 5 5 5 6 6 6 7 8 8 9
6 5 4 5 6 5 5 6 6 4 5 5 4 3 2 3 2 2 2 2 2 2 3 3 3 4 4 2 1 3 5 5 5 5 5 5 5 5 6 6 7 7 8
6 5 4 5 5 6 6 7 6 7 5 5 5 2 1 1 2 3 3 3 3 2 3 3 2 2 1 4 3 3 5 6 5 4 4 4 3 4 4 5 5 6 7
4 4 5 4 5 5 6 7 6 6 4 6 6 4 2 2 4 4 3 4 4 3 3 4 3 3 3 3 4 6 5 5 5 4 3 2 2 3 3 4 5 6 6
2 3 4 4 5 6 6 7 8 10 6 6 5 7 7 7 3 3 5 4 4 4 4 4 5 4 4 4 4 5 6 5 4 3 3 2 1 2 3 3 4 5 6
1 2 3 4 5 5 6 7 8 7 7 8 5 4 4 6 6 3 3 4 5 5 5 5 5 5 5 5 6 9 7 6 5 4 3 2 2 2 2 3 4 4 5
2 2 3 3 4 5 6 6 7 8 6 6 6 4 3 2 3 6 4 4 4 5 6 6 5 5 5 6 5 8 10 9 8 6 5 4 3 2 2 2 3 4 4
2 3 4 4 4 4 6 7 7 9 8 7 6 5 6 6 6 5 5 4 5 5 5 5 6 6 5 6 9 14 13 12 10 9 7 6 5 3 2 2 2 3 3
2 4 4 4 5 5 5 6 6 7 9 9 7 7 6 6 5 5 5 5 4 3 4 4 6 7 7 6 7 17 14 14 13 11 10 8 7 5 4 2 1 1 1
4 4 4 5 6 6 6 5 5 6 7 9 9 8 6 7 5 5 6 7 5 3 4 6 5 8 8 7 11 18 10 16 15 14 12 11 9 7 6 4 3 2 1
7 8 7 5 5 6 6 6 5 6 6 7 9 9 7 6 6 6 5 6 9 8 10 9 6 8 9 8 15 10 9 16 17 16 14 13 11 9 8 7 5 4 3
8 8 8 7 6 5 6 6 6 6 7 7 6 8 9 6 6 6 6 5 6 8 9 9 8 7 10 10 16 10 10 19 18 17 15 14 13 11 10 8 7 6 5
8 8 8 8 7 7 6 6 7 7 8 8 8 9 10 9 7 6 6 6 6 6 6 5 4 5 10 10 10 9 8 9 9 16 16 16 14 13 12 10 9 7 6
8 8 8 8 8 7 7 6 7 8 8 9 9 10 11 8 11 8 7 8 7 7 6 6 5 5 7 12 11 10 7 7 7 15 18 17 16 15 14 13 11 9 8
8 8 8 8 8 8 8 7 8 8 9 10 10 11 11 10 12 9 9 9 8 7 5 5 6 4 3 8 10 7 7 5 7 10 16 18 18 17 16 15 13 11 9
7 8 8 8 8 9 9 8 8 9 9 10 10 11 11 12 13 11 10 10 8 9 8 5 5 5 4 7 10 9 8 8 8 7 11 13 16 18 18 17 15 12 11
8 8 8 9 9 8 8 9 9 9 10 11 11 12 12 14 16 14 11 10 10 10 9 8 6 5 7 10 13 10 10 8 7 7 7 8 8 8 10 15 15 14 13
8 8 9 9 10 9 16 21 16 10 10 12 13 13 13 14 17 22 24 20 19 16 15 14 12 11 14 11 11 11 11 9 8 10 10 9 8 9 8 7 14 17 16
9 11 11 11 12 14 23 24 22 14 12 13 14 13 12 11 14 13 18 24 24 29 27 19 17 17 13 14 17 16 16 12 10 10 11 9 9 10 7 9 18 18 16
11 12 13 13 15 18 26 27 26 17 14 15 15 16 16 15 14 15 13 15 17 19 23 20 18 14 10 13 18 17 17 9 4 5 9 8 8 7 6 6 16 18 16
12 13 15 15 16 20 28 30 29 13 13 16 16 16 17 17 23 26 19 17 19 18 25 26 21 15 14 19 19 10 11 11 6 7 7 7 7 5 5 5 9 17 16
15 17 18 16 16 19 28 34 33 14 14 16 15 15 19 24 26 28 20 18 20 18 12 13 18 19 14 15 27 20 16 15 8 8 10 9 7 7 6 4 5 6 8
Wind_Direction
172 166 165 165 167 163 158 149 159 159 154 156 147 129 107 86 75 74 95 38 15 356 172 156 149 139 125 114 109 104 98 88 80 72 68 68 67 66 68 66 66 64 60
169 169 175 171 168 161 152 149 159 157 162 152 141 125 121 114 98 74 120 77 49 44 56 125 138 132 122 115 107 103 96 88 77 68 63 63 63 63 62 62 64 63 59
173 170 174 174 167 152 146 147 153 149 151 151 143 130 114 109 125 110 97 113 77 54 54 65 84 108 115 113 107 102 97 90 81 72 67 61 58 58 57 57 59 59 57
178 170 172 175 165 150 148 155 155 152 158 155 148 146 127 112 126 141 117 90 93 84 64 66 65 76 89 101 103 103 103 104 95 84 75 65 61 59 55 52 52 52 53
183 171 172 171 162 153 156 164 160 155 159 157 144 138 137 141 147 171 139 103 86 96 101 82 70 61 66 87 109 133 133 121 106 95 84 75 69 61 52 49 48 47 47
180 169 166 170 162 157 167 169 166 167 150 146 124 114 131 141 162 185 160 118 111 116 126 125 99 69 63 92 163 181 158 130 112 98 86 77 66 55 47 43 41 40 38
172 172 166 172 167 173 181 174 163 158 146 137 106 92 32 163 200 192 176 157 169 162 145 157 158 140 103 91 93 154 154 141 126 107 90 75 61 49 41 37 36 35 33
169 176 176 177 174 176 187 187 172 160 155 164 140 131 169 274 260 205 192 186 182 174 183 191 178 169 151 111 106 106 126 138 138 130 111 87 65 52 45 41 40 36 34
172 188 192 186 183 185 199 200 190 178 170 191 186 156 161 197 204 219 207 193 185 183 193 191 183 186 163 137 125 123 125 134 138 139 135 123 100 77 67 58 51 46 41
195 227 220 212 197 195 208 212 206 205 171 182 219 220 171 150 152 180 231 211 196 195 193 190 189 192 169 143 146 151 153 154 156 158 159 154 138 105 84 73 62 54 46
212 251 260 246 228 209 212 218 212 215 208 192 192 177 178 188 156 145 184 208 213 210 193 186 184 191 175 154 154 167 173 176 178 180 181 176 166 145 118 93 73 60 50
222 231 252 262 259 241 221 221 217 216 223 220 211 195 170 172 185 166 158 175 201 212 195 184 185 189 185 172 174 173 180 185 188 190 191 188 185 175 156 124 87 63 46
276 232 224 237 253 256 246 231 225 221 221 228 222 220 215 206 175 168 147 151 165 185 184 199 192 184 189 178 172 174 183 189 193 195 197 197 195 190 187 187 153 79 34
332 314 253 231 239 252 257 247 238 230 226 230 238 235 226 222 209 191 164 148 147 179 197 208 190 190 189 179 184 180 187 191 195 198 201 203 203 201 202 207 209 219 258
344 342 329 290 254 247 252 256 249 240 234 232 236 242 243 233 224 215 192 168 162 178 209 209 197 194 188 179 190 182 179 192 196 199 203 206 208 210 211 214 219 229 247
346 341 337 325 303 271 253 252 255 247 242 239 235 240 244 242 237 225 214 204 188 184 201 197 194 185 180 186 191 180 188 190 196 200 205 209 211 215 218 220 223 230 245
341 340 333 327 318 302 279 261 254 252 248 246 242 241 242 237 238 231 222 215 206 187 194 187 172 167 171 180 184 181 184 180 189 203 209 212 214 218 221 222 224 228 238
334 331 328 324 318 310 295 275 263 255 250 248 245 245 246 238 236 226 219 219 215 206 180 171 173 162 182 185 178 180 185 182 182 204 209 212 214 219 222 223 225 228 234
323 322 322 320 315 309 299 284 268 259 251 248 244 245 245 238 239 228 221 220 216 214 203 170 172 164 165 172 169 178 186 189 191 201 206 210 213 218 222 222 224 226 230
307 307 306 303 301 298 293 286 277 268 261 255 248 246 244 240 240 229 225 222 213 212 211 191 173 167 161 168 173 178 191 198 197 195 208 208 213 218 221 222 222 224 225
290 289 291 291 289 287 283 285 280 271 267 264 257 251 248 246 242 234 229 220 211 215 211 206 193 170 176 173 187 185 195 189 200 190 194 203 203 207 209 218 219 219 218
284 284 281 279 278 277 284 287 285 274 269 266 264 258 252 249 250 248 241 229 216 216 215 215 211 203 199 189 180 181 178 173 203 194 189 201 193 203 202 200 213 212 208
285 284 280 275 273 273 281 283 281 276 268 266 264 262 257 248 241 244 248 245 234 227 221 216 222 219 201 190 184 185 190 190 197 177 174 191 187 202 193 203 206 204 201
283 284 285 281 279 276 279 280 279 274 266 261 259 257 257 254 243 239 238 240 241 237 231 225 228 225 207 194 194 194 193 178 89 155 164 176 177 189 180 190 206 202 202
283 281 281 278 276 278 279 280 279 270 263 261 257 254 252 253 251 245 239 238 241 243 242 233 228 223 216 200 188 179 175 173 176 183 178 160 159 153 162 181 201 204 203
287 286 283 280 278 278 279 281 279 271 263 260 257 252 248 250 251 248 240 236 238 237 226 232 231 228 217 208 197 193 186 189 179 179 182 164 155 147 163 180 183 195 199